Haines, AK

6:18 AM AKST on February 24, 2017 (GMT -0900)
Haines

Weather History for PAHN - September, 2013

Change the Weather History Date:

Monday, September 16, 2013

  Actual Average Record
Temperature  
Mean Temperature 56 °F -  
Max Temperature 60 °F 52 °F 75 °F (2010)
Min Temperature 51 °F 44 °F 30 °F (2006)
Degree Days  
Heating Degree Days 9    
Growing Degree Days 6 (Base 50)    
Moisture  
Dew Point 50 °F    
Average Humidity 86    
Maximum Humidity 100    
Minimum Humidity 56    
Precipitation  
Precipitation 0.36 in - - ()
Sea Level Pressure  
Sea Level Pressure 29.60 in    
Wind  
Wind Speed 8 mph (ENE)    
Max Wind Speed 13 mph    
Max Gust Speed 22 mph    
Visibility 9 miles    
Events Rain    
Averages and records for this station are not official NWS values.
T = Trace of Precipitation, MM = Missing Value Source: NWS Daily Summary

Daily Weather History Graph

Daily Weather History Graph

Search for Another Location

Airport or City:

Trip Planner

Search our weather history database for the weather conditions in past years. The results will help you decide how hot, cold, wet, or windy it might be!

Date:

Astronomy

Sep. 16, 2013 Rise Set
Actual Time 6:33 AM AKDT 7:18 PM AKDT
Civil Twilight 5:52 AM AKDT 7:59 PM AKDT
Nautical Twilight 5:02 AM AKDT 8:49 PM AKDT
Astronomical Twilight 4:06 AM AKDT 9:44 PM AKDT
Moon 5:56 PM AKDT (9/16) 2:54 AM AKDT (9/16)
Length of Visible Light 14h 06m
Length of Day
12h 44m
Waxing Gibbous, 91% of the Moon is Illuminated
Sep 16
Waxing Gibbous
Sep 19
Full
Sep 26
Last Quarter
Oct 4
New
Oct 11
First Quarter

Hourly Weather History & Observations

Time (AKDT) Temp. Dew Point Humidity Pressure Visibility Wind Dir Wind Speed Gust Speed Precip Events Conditions
12:54 AM 61.0 °F 45.0 °F 56% 29.58 in 10.0 mi NW 9.2 mph - N/A   Overcast
1:54 AM 59.0 °F 48.0 °F 67% 29.58 in 10.0 mi NW 10.4 mph - 0.00 in Rain Light Rain
2:54 AM 55.0 °F 50.0 °F 83% 29.59 in 8.0 mi NW 8.1 mph 17.3 mph 0.08 in Rain Light Rain
3:54 AM 54.0 °F 51.1 °F 90% 29.58 in 10.0 mi NW 11.5 mph 18.4 mph 0.01 in Rain Light Rain
4:54 AM 53.1 °F 51.1 °F 93% 29.58 in 10.0 mi WNW 8.1 mph - 0.01 in Rain Light Rain
5:54 AM 53.1 °F 52.0 °F 96% 29.57 in 7.0 mi West 5.8 mph - 0.02 in Rain Light Rain
6:29 AM 51.8 °F 50.0 °F 94% 29.57 in 8.0 mi Calm Calm - 0.02 in Rain Light Rain
6:54 AM 51.1 °F 50.0 °F 96% 29.57 in 7.0 mi SE 3.5 mph - 0.04 in Rain Light Rain
7:04 AM 51.8 °F 51.8 °F 100% 29.57 in 6.0 mi ENE 3.5 mph - 0.01 in Rain Rain
7:16 AM 51.8 °F 51.8 °F 100% 29.57 in 8.0 mi East 4.6 mph - 0.02 in Rain Light Rain
7:46 AM 51.8 °F 51.8 °F 100% 29.56 in 4.0 mi East 3.5 mph - 0.06 in Rain Rain
7:54 AM 52.0 °F 51.1 °F 97% 29.57 in 4.0 mi Calm Calm - 0.07 in Rain Rain
8:05 AM 51.8 °F 51.8 °F 100% 29.57 in 4.0 mi East 3.5 mph - 0.03 in Rain Rain
8:54 AM 53.1 °F 51.1 °F 93% 29.58 in 7.0 mi ENE 8.1 mph - 0.07 in Rain Rain
9:54 AM 53.1 °F 51.1 °F 93% 29.59 in 10.0 mi ENE 5.8 mph - 0.03 in Rain Light Rain
10:54 AM 53.1 °F 51.1 °F 93% 29.60 in 10.0 mi East 8.1 mph - 0.00 in Rain Light Rain
11:04 AM 53.6 °F 51.8 °F 94% 29.58 in 9.0 mi ENE 9.2 mph - 0.01 in Rain Light Rain
11:23 AM 53.6 °F 51.8 °F 94% 29.58 in 10.0 mi East 8.1 mph - 0.01 in Rain Light Rain
11:54 AM 54.0 °F 52.0 °F 93% 29.60 in 10.0 mi East 9.2 mph 16.1 mph 0.01 in Rain Light Rain
12:30 PM 55.4 °F 51.8 °F 88% 29.59 in 10.0 mi ESE 12.7 mph 21.9 mph 0.00 in Rain Light Rain
12:54 PM 54.0 °F 51.1 °F 90% 29.61 in 10.0 mi ESE 9.2 mph 19.6 mph 0.00 in Rain Light Rain
1:05 PM 53.6 °F 51.8 °F 94% 29.60 in 5.0 mi East 10.4 mph 16.1 mph 0.02 in Rain Rain
1:42 PM 53.6 °F 51.8 °F 94% 29.60 in 10.0 mi East 11.5 mph 17.3 mph 0.02 in Rain Light Rain
1:54 PM 54.0 °F 51.1 °F 90% 29.61 in 10.0 mi East 8.1 mph - 0.02 in Rain Light Rain
2:54 PM 55.0 °F 51.1 °F 86% 29.61 in 10.0 mi East 9.2 mph 16.1 mph 0.00 in Rain Light Rain
3:54 PM 57.0 °F 48.9 °F 74% 29.60 in 10.0 mi East 10.4 mph 17.3 mph 0.00 in   Mostly Cloudy
4:54 PM 55.9 °F 48.0 °F 75% 29.61 in 10.0 mi ENE 10.4 mph 17.3 mph 0.00 in   Overcast
5:54 PM 55.0 °F 46.9 °F 74% 29.62 in 10.0 mi East 8.1 mph 17.3 mph 0.00 in   Overcast
6:54 PM 54.0 °F 46.9 °F 77% 29.62 in 10.0 mi East 11.5 mph 17.3 mph N/A   Overcast
7:54 PM 54.0 °F 45.0 °F 72% 29.63 in 10.0 mi ENE 9.2 mph 19.6 mph N/A   Mostly Cloudy
8:54 PM 53.1 °F 45.0 °F 74% 29.64 in 10.0 mi East 9.2 mph 17.3 mph N/A   Overcast
9:54 PM 53.1 °F 45.0 °F 74% 29.65 in 10.0 mi East 10.4 mph 16.1 mph N/A   Scattered Clouds
10:54 PM 53.1 °F 46.0 °F 77% 29.65 in 10.0 mi ENE 8.1 mph - N/A   Mostly Cloudy
11:24 PM 53.6 °F 46.4 °F 77% 29.64 in 10.0 mi ENE 8.1 mph - N/A   Overcast
11:49 PM 53.6 °F 46.4 °F 77% 29.65 in 10.0 mi East 5.8 mph - N/A   Overcast
11:54 PM 53.1 °F 46.0 °F 77% 29.65 in 10.0 mi East 9.2 mph - N/A   Overcast